TimeCST,TemperatureF,Dew PointF,Humidity,Sea Level PressureIn,VisibilityMPH,Wind Direction,Wind SpeedMPH,Gust SpeedMPH,PrecipitationIn,Events,Conditions,WindDirDegrees,DateUTC
12:53 AM,30.0,24.1,79,30.16,10.0,NNW,9.2,-,N/A,,Clear,330,2013-12-01 06:53:00
1:53 AM,28.9,23.0,78,30.17,10.0,NW,11.5,-,N/A,,Clear,320,2013-12-01 07:53:00
2:53 AM,27.0,21.9,81,30.17,10.0,NNW,8.1,-,N/A,,Clear,330,2013-12-01 08:53:00
3:53 AM,23.0,21.0,92,30.17,9.0,NW,6.9,-,N/A,,Clear,310,2013-12-01 09:53:00
4:53 AM,19.0,17.1,92,30.18,8.0,NNW,6.9,-,N/A,,Clear,340,2013-12-01 10:53:00
5:53 AM,21.0,19.0,92,30.19,8.0,NNW,8.1,-,N/A,,Clear,340,2013-12-01 11:53:00
6:53 AM,19.9,18.0,92,30.19,7.0,NNW,4.6,-,N/A,,Mostly Cloudy,330,2013-12-01 12:53:00
7:53 AM,19.9,18.0,92,30.21,5.0,WNW,6.9,-,N/A,,Partly Cloudy,300,2013-12-01 13:53:00
8:53 AM,27.0,23.0,85,30.21,6.0,North,9.2,-,N/A,,Overcast,350,2013-12-01 14:53:00
9:53 AM,30.0,25.0,82,30.19,7.0,ENE,3.5,-,N/A,,Mostly Cloudy,60,2013-12-01 15:53:00
10:53 AM,34.0,25.0,70,30.18,8.0,North,3.5,-,N/A,,Clear,360,2013-12-01 16:53:00
11:53 AM,36.0,26.1,67,30.14,8.0,East,3.5,-,N/A,,Mostly Cloudy,80,2013-12-01 17:53:00
12:53 PM,37.0,26.1,65,30.12,8.0,Calm,Calm,-,N/A,,Overcast,0,2013-12-01 18:53:00
1:53 PM,37.0,26.1,65,30.09,9.0,SE,3.5,-,N/A,,Overcast,130,2013-12-01 19:53:00
2:53 PM,37.0,25.0,62,30.07,8.0,South,3.5,-,N/A,,Overcast,170,2013-12-01 20:53:00
3:53 PM,37.0,26.1,65,30.06,9.0,SE,3.5,-,N/A,,Overcast,130,2013-12-01 21:53:00
4:53 PM,35.1,26.1,70,30.06,9.0,Calm,Calm,-,N/A,,Overcast,0,2013-12-01 22:53:00
5:53 PM,34.0,25.0,70,30.05,7.0,ENE,4.6,-,N/A,,Overcast,70,2013-12-01 23:53:00
6:53 PM,33.1,26.1,75,30.04,6.0,East,4.6,-,N/A,,Haze,90,2013-12-02 00:53:00
7:53 PM,33.1,26.1,75,30.01,8.0,ESE,4.6,-,N/A,,Overcast,120,2013-12-02 01:53:00
8:53 PM,32.0,26.1,79,29.99,8.0,SE,6.9,-,N/A,,Overcast,140,2013-12-02 02:53:00
9:53 PM,28.9,24.1,82,29.98,8.0,SE,6.9,-,N/A,,Clear,130,2013-12-02 03:53:00
10:53 PM,27.0,23.0,85,29.96,6.0,SSE,4.6,-,N/A,,Clear,150,2013-12-02 04:53:00
11:53 PM,26.1,23.0,88,29.94,7.0,SE,6.9,-,N/A,,Clear,140,2013-12-02 05:53:00